GLD166 SSFB-SSMR

Flight info

Callsign GLD166
Flight time 1h 0m
Altitude 5500
Route 2547S05242W 2527S05237W 2453S05153W
Aircraft C182/M-SDFGIRY/S

Departure

Time 2026-05-07 15:28
Airport Paulo Abdala Airport (SSFB)

Arrival

Time 2026-05-07 16:28
Airport Manoel Ribas Airport (SSMR)
Time Latitude Longitude Altitude Speed Heading
2026-05-07 15:23 -26.05915 -53.06623 2111 ft 0 kts 27°
2026-05-07 15:24 -26.05922 -53.06620 2114 ft 4 kts 204°
2026-05-07 15:25 -26.05948 -53.06634 2110 ft 8 kts 212°
2026-05-07 15:25 -26.05978 -53.06605 2108 ft 0 kts 116°
2026-05-07 15:26 -26.05980 -53.06600 2108 ft 4 kts 123°
2026-05-07 15:26 -26.06019 -53.06544 2105 ft 17 kts 66°
2026-05-07 15:26 -26.05900 -53.06323 2101 ft 55 kts 60°
2026-05-07 15:27 -26.05643 -53.05844 2172 ft 79 kts 59°
2026-05-07 15:27 -26.05350 -53.05306 2265 ft 83 kts 30°
2026-05-07 15:27 -26.04813 -53.05353 2427 ft 83 kts 322°
2026-05-07 15:27 -26.04381 -53.05785 2615 ft 92 kts 342°
2026-05-07 15:28 -26.03955 -53.06443 2755 ft 119 kts 304°
2026-05-07 15:28 -26.03261 -53.06836 2873 ft 122 kts
2026-05-07 15:28 -26.02524 -53.06319 3052 ft 131 kts 34°
2026-05-07 15:28 -26.01862 -53.05592 3208 ft 139 kts 49°
2026-05-07 15:29 -26.01368 -53.04660 3365 ft 137 kts 51°
2026-05-07 15:29 -26.00885 -53.03738 3544 ft 138 kts 50°
2026-05-07 15:29 -26.00437 -53.02807 3735 ft 137 kts 52°
2026-05-07 15:29 -25.99986 -53.01881 3905 ft 136 kts 51°
2026-05-07 15:30 -25.99542 -53.00947 4068 ft 137 kts 52°
2026-05-07 15:30 -25.99104 -53.00029 4227 ft 134 kts 51°
2026-05-07 15:30 -25.98711 -52.99138 4379 ft 125 kts 51°
2026-05-07 15:30 -25.98375 -52.98250 4568 ft 126 kts 52°
2026-05-07 15:31 -25.98004 -52.97345 4737 ft 132 kts 51°
2026-05-07 15:31 -25.97615 -52.96408 4899 ft 134 kts 51°
2026-05-07 15:31 -25.97238 -52.95482 5070 ft 130 kts 50°
2026-05-07 15:31 -25.96897 -52.94568 5228 ft 129 kts 52°
2026-05-07 15:32 -25.96559 -52.93646 5413 ft 130 kts 51°
2026-05-07 15:32 -25.96215 -52.92705 5504 ft 135 kts 51°
2026-05-07 15:32 -25.95861 -52.91718 5504 ft 137 kts 52°
2026-05-07 15:32 -25.95506 -52.90724 5507 ft 139 kts 52°
2026-05-07 15:33 -25.95266 -52.90063 5506 ft 140 kts 52°
2026-05-07 15:33 -25.94793 -52.88747 5501 ft 138 kts 52°
2026-05-07 15:33 -25.94546 -52.88094 5513 ft 140 kts 52°
2026-05-07 15:33 -25.94141 -52.87103 5510 ft 140 kts 49°
2026-05-07 15:34 -25.93686 -52.86150 5507 ft 140 kts 47°
2026-05-07 15:34 -25.93231 -52.85182 5509 ft 142 kts 48°
2026-05-07 15:34 -25.92784 -52.84218 5507 ft 139 kts 47°
2026-05-07 15:34 -25.92342 -52.83257 5524 ft 141 kts 49°
2026-05-07 15:35 -25.91885 -52.82277 5512 ft 143 kts 47°
2026-05-07 15:35 -25.91425 -52.81291 5513 ft 144 kts 48°
2026-05-07 15:35 -25.90969 -52.80312 5521 ft 145 kts 48°
2026-05-07 15:35 -25.90499 -52.79310 5525 ft 147 kts 48°
2026-05-07 15:36 -25.90031 -52.78318 5509 ft 142 kts 47°
2026-05-07 15:36 -25.89578 -52.77348 5519 ft 141 kts 48°
2026-05-07 15:36 -25.89113 -52.76392 5504 ft 139 kts 47°
2026-05-07 15:36 -25.88658 -52.75446 5508 ft 140 kts 48°
2026-05-07 15:37 -25.88192 -52.74492 5501 ft 138 kts 44°
2026-05-07 15:37 -25.87492 -52.73827 5483 ft 131 kts 23°
2026-05-07 15:37 -25.86676 -52.73440 5632 ft 128 kts 14°
2026-05-07 15:37 -25.85749 -52.73164 5614 ft 146 kts 14°
2026-05-07 15:38 -25.84748 -52.72846 5618 ft 153 kts 15°
2026-05-07 15:38 -25.83705 -52.72516 5628 ft 158 kts 15°
2026-05-07 15:38 -25.82634 -52.72178 5634 ft 161 kts 15°
2026-05-07 15:38 -25.81549 -52.71841 5632 ft 161 kts 15°
2026-05-07 15:39 -25.80465 -52.71499 5632 ft 162 kts 15°
2026-05-07 15:39 -25.79384 -52.71161 5640 ft 161 kts 15°
2026-05-07 15:39 -25.78301 -52.70823 5637 ft 161 kts 15°
2026-05-07 15:39 -25.77218 -52.70485 5643 ft 162 kts 15°
2026-05-07 15:40 -25.76150 -52.70150 5634 ft 161 kts 15°
2026-05-07 15:40 -25.75075 -52.69810 5636 ft 161 kts 15°
2026-05-07 15:40 -25.73993 -52.69467 5636 ft 162 kts 15°
2026-05-07 15:40 -25.72913 -52.69125 5639 ft 162 kts 15°
2026-05-07 15:41 -25.71829 -52.68781 5639 ft 161 kts 15°
2026-05-07 15:41 -25.70745 -52.68436 5642 ft 163 kts 15°
2026-05-07 15:41 -25.69651 -52.68083 5635 ft 163 kts 15°
2026-05-07 15:41 -25.68562 -52.67739 5636 ft 162 kts 15°
2026-05-07 15:42 -25.67478 -52.67395 5643 ft 162 kts 15°
2026-05-07 15:42 -25.66386 -52.67050 5636 ft 163 kts 15°
2026-05-07 15:42 -25.65303 -52.66705 5641 ft 162 kts 15°
2026-05-07 15:42 -25.64214 -52.66358 5635 ft 163 kts 15°
2026-05-07 15:43 -25.63129 -52.66011 5634 ft 162 kts 15°
2026-05-07 15:43 -25.62051 -52.65667 5634 ft 160 kts 15°
2026-05-07 15:43 -25.60979 -52.65323 5641 ft 161 kts 15°
2026-05-07 15:43 -25.59891 -52.64973 5634 ft 164 kts 15°
2026-05-07 15:44 -25.58815 -52.64629 5640 ft 164 kts 15°
2026-05-07 15:44 -25.57724 -52.64278 5635 ft 163 kts 15°
2026-05-07 15:44 -25.56638 -52.63931 5645 ft 163 kts 15°
2026-05-07 15:44 -25.55541 -52.63581 5641 ft 164 kts 15°
2026-05-07 15:45 -25.54449 -52.63230 5635 ft 162 kts 15°
2026-05-07 15:45 -25.53371 -52.62883 5645 ft 163 kts 15°
2026-05-07 15:45 -25.52277 -52.62532 5640 ft 164 kts 15°
2026-05-07 15:45 -25.51188 -52.62181 5638 ft 162 kts 15°
2026-05-07 15:46 -25.49006 -52.61477 5636 ft 164 kts 15°
2026-05-07 15:46 -25.47914 -52.61125 5636 ft 163 kts 15°
2026-05-07 15:46 -25.46824 -52.60772 5635 ft 163 kts 15°
2026-05-07 15:47 -25.45738 -52.60419 5637 ft 163 kts 15°
2026-05-07 15:47 -25.44651 -52.60067 5633 ft 163 kts 15°
2026-05-07 15:47 -25.43593 -52.59629 5621 ft 164 kts 32°
2026-05-07 15:47 -25.42719 -52.58830 5614 ft 165 kts 40°
2026-05-07 15:48 -25.41846 -52.58010 5614 ft 164 kts 39°
2026-05-07 15:48 -25.40981 -52.57203 5620 ft 163 kts 39°
2026-05-07 15:48 -25.40116 -52.56392 5613 ft 163 kts 40°
2026-05-07 15:48 -25.39254 -52.55585 5618 ft 163 kts 39°
2026-05-07 15:49 -25.38391 -52.54776 5611 ft 162 kts 40°
2026-05-07 15:49 -25.37531 -52.53968 5615 ft 163 kts 40°
2026-05-07 15:49 -25.36672 -52.53159 5611 ft 162 kts 39°
2026-05-07 15:49 -25.35808 -52.52350 5612 ft 163 kts 40°
2026-05-07 15:50 -25.34947 -52.51541 5618 ft 163 kts 40°
2026-05-07 15:50 -25.34080 -52.50727 5614 ft 163 kts 40°
2026-05-07 15:50 -25.33212 -52.49911 5623 ft 164 kts 39°
2026-05-07 15:50 -25.32338 -52.49090 5612 ft 165 kts 40°
2026-05-07 15:51 -25.31469 -52.48270 5616 ft 163 kts 40°
2026-05-07 15:51 -25.30608 -52.47459 5614 ft 161 kts 40°
2026-05-07 15:51 -25.29765 -52.46666 5612 ft 161 kts 40°
2026-05-07 15:51 -25.28914 -52.45859 5621 ft 163 kts 39°
2026-05-07 15:52 -25.28043 -52.45025 5622 ft 168 kts 40°
2026-05-07 15:52 -25.27164 -52.44194 5623 ft 165 kts 39°
2026-05-07 15:52 -25.26296 -52.43376 5612 ft 163 kts 40°
2026-05-07 15:52 -25.25430 -52.42556 5620 ft 165 kts 40°
2026-05-07 15:53 -25.24557 -52.41736 5614 ft 164 kts 40°
2026-05-07 15:53 -25.23690 -52.40920 5613 ft 163 kts 40°
2026-05-07 15:53 -25.22830 -52.40107 5612 ft 162 kts 40°
2026-05-07 15:53 -25.21967 -52.39288 5614 ft 164 kts 40°
2026-05-07 15:54 -25.21105 -52.38472 5610 ft 162 kts 40°
2026-05-07 15:54 -25.20253 -52.37663 5623 ft 162 kts 40°
2026-05-07 15:54 -25.19401 -52.36854 5612 ft 163 kts 40°
2026-05-07 15:54 -25.18544 -52.36042 5615 ft 162 kts 40°
2026-05-07 15:55 -25.17692 -52.35233 5620 ft 162 kts 39°
2026-05-07 15:55 -25.16843 -52.34409 5606 ft 162 kts 44°
2026-05-07 15:55 -25.16149 -52.33432 5612 ft 163 kts 53°
2026-05-07 15:55 -25.15479 -52.32422 5609 ft 163 kts 53°
2026-05-07 15:56 -25.14806 -52.31411 5614 ft 164 kts 54°
2026-05-07 15:56 -25.14124 -52.30393 5603 ft 164 kts 53°
2026-05-07 15:56 -25.13451 -52.29379 5604 ft 164 kts 53°
2026-05-07 15:56 -25.12781 -52.28372 5608 ft 162 kts 53°
2026-05-07 15:57 -25.12115 -52.27371 5605 ft 162 kts 53°
2026-05-07 15:57 -25.11445 -52.26363 5614 ft 164 kts 53°
2026-05-07 15:57 -25.10765 -52.25336 5603 ft 166 kts 53°
2026-05-07 15:57 -25.10084 -52.24312 5606 ft 165 kts 53°
2026-05-07 15:58 -25.09417 -52.23307 5612 ft 164 kts 53°
2026-05-07 15:58 -25.08743 -52.22291 5607 ft 166 kts 53°
2026-05-07 15:58 -25.08063 -52.21266 5605 ft 164 kts 53°
2026-05-07 15:58 -25.07390 -52.20249 5612 ft 164 kts 53°
2026-05-07 15:59 -25.06713 -52.19230 5615 ft 165 kts 53°
2026-05-07 15:59 -25.06037 -52.18209 5605 ft 164 kts 53°
2026-05-07 15:59 -25.05363 -52.17186 5615 ft 166 kts 54°
2026-05-07 15:59 -25.04680 -52.16151 5609 ft 167 kts 53°
2026-05-07 16:00 -25.04004 -52.15125 5608 ft 165 kts 53°
2026-05-07 16:00 -25.03326 -52.14100 5608 ft 164 kts 53°
2026-05-07 16:00 -25.02651 -52.13078 5618 ft 166 kts 53°
2026-05-07 16:00 -25.01970 -52.12045 5605 ft 165 kts 53°
2026-05-07 16:01 -25.01294 -52.11019 5607 ft 164 kts 53°
2026-05-07 16:01 -25.00628 -52.10008 5612 ft 164 kts 53°
2026-05-07 16:01 -24.99970 -52.09002 5605 ft 164 kts 54°
2026-05-07 16:01 -24.99298 -52.07984 5603 ft 164 kts 54°
2026-05-07 16:02 -24.98632 -52.06971 5606 ft 162 kts 53°
2026-05-07 16:02 -24.97967 -52.05959 5612 ft 164 kts 54°
2026-05-07 16:02 -24.97298 -52.04939 5601 ft 163 kts 53°
2026-05-07 16:02 -24.96636 -52.03928 5604 ft 163 kts 53°
2026-05-07 16:03 -24.95970 -52.02916 5605 ft 164 kts 53°
2026-05-07 16:03 -24.95301 -52.01899 5606 ft 163 kts 53°
2026-05-07 16:03 -24.94639 -52.00889 5600 ft 162 kts 54°
2026-05-07 16:03 -24.93974 -51.99872 5609 ft 166 kts 53°
2026-05-07 16:04 -24.93297 -51.98838 5601 ft 167 kts 54°
2026-05-07 16:04 -24.92620 -51.97803 5601 ft 166 kts 54°
2026-05-07 16:04 -24.91944 -51.96767 5605 ft 167 kts 54°
2026-05-07 16:04 -24.91268 -51.95739 5600 ft 164 kts 54°
2026-05-07 16:05 -24.90606 -51.94726 5600 ft 162 kts 54°
2026-05-07 16:05 -24.89945 -51.93713 5604 ft 164 kts 54°
2026-05-07 16:05 -24.89277 -51.92690 5598 ft 163 kts 54°
2026-05-07 16:05 -24.88616 -51.91678 5602 ft 162 kts 54°
2026-05-07 16:06 -24.87968 -51.90684 5605 ft 163 kts 54°
2026-05-07 16:06 -24.87303 -51.89665 5597 ft 165 kts 54°
2026-05-07 16:06 -24.86639 -51.88650 5604 ft 162 kts 54°
2026-05-07 16:06 -24.85980 -51.87640 5596 ft 162 kts 54°
2026-05-07 16:07 -24.85326 -51.86634 5599 ft 161 kts 53°
2026-05-07 16:07 -24.84664 -51.85620 5614 ft 165 kts 54°
2026-05-07 16:07 -24.83995 -51.84591 5605 ft 166 kts 54°
2026-05-07 16:07 -24.83316 -51.83547 5616 ft 168 kts 54°
2026-05-07 16:08 -24.82643 -51.82510 5600 ft 165 kts 54°
2026-05-07 16:08 -24.81976 -51.81483 5613 ft 166 kts 53°
2026-05-07 16:08 -24.81298 -51.80437 5618 ft 169 kts 53°
2026-05-07 16:08 -24.80620 -51.79399 5601 ft 165 kts 54°
2026-05-07 16:09 -24.79955 -51.78371 5598 ft 164 kts 54°
2026-05-07 16:09 -24.79295 -51.77352 5596 ft 163 kts 54°
2026-05-07 16:09 -24.78638 -51.76336 5599 ft 163 kts 54°
2026-05-07 16:09 -24.77981 -51.75317 5606 ft 164 kts 54°
2026-05-07 16:10 -24.77320 -51.74296 5610 ft 165 kts 53°
2026-05-07 16:10 -24.76652 -51.73258 5596 ft 165 kts 54°
2026-05-07 16:10 -24.75993 -51.72229 5596 ft 164 kts 54°
2026-05-07 16:10 -24.75335 -51.71211 5596 ft 162 kts 54°
2026-05-07 16:11 -24.74693 -51.70215 5610 ft 163 kts 54°
2026-05-07 16:11 -24.74032 -51.69185 5603 ft 165 kts 55°
2026-05-07 16:11 -24.73373 -51.68159 5595 ft 163 kts 54°
2026-05-07 16:11 -24.72718 -51.67141 5594 ft 162 kts 54°
2026-05-07 16:12 -24.72069 -51.66131 5602 ft 161 kts 54°
2026-05-07 16:12 -24.71419 -51.65120 5597 ft 163 kts 54°
2026-05-07 16:12 -24.70768 -51.64108 5593 ft 161 kts 54°
2026-05-07 16:12 -24.70120 -51.63102 5606 ft 163 kts 54°
2026-05-07 16:13 -24.69467 -51.62082 5593 ft 162 kts 54°
2026-05-07 16:13 -24.68820 -51.61073 5593 ft 161 kts 54°
2026-05-07 16:13 -24.68167 -51.60056 5599 ft 163 kts 54°
2026-05-07 16:13 -24.67526 -51.59051 5594 ft 162 kts 54°
2026-05-07 16:14 -24.66877 -51.58035 5594 ft 164 kts 54°
2026-05-07 16:14 -24.66224 -51.57017 5599 ft 162 kts 54°
2026-05-07 16:14 -24.65568 -51.55994 5603 ft 165 kts 54°
2026-05-07 16:14 -24.64642 -51.55297 5544 ft 165 kts 14°
2026-05-07 16:15 -24.63519 -51.55116 5552 ft 163 kts
2026-05-07 16:15 -24.62402 -51.54937 5547 ft 161 kts
2026-05-07 16:15 -24.61296 -51.54760 5544 ft 160 kts
2026-05-07 16:15 -24.60192 -51.54583 5546 ft 160 kts
2026-05-07 16:16 -24.59101 -51.54409 5557 ft 164 kts
2026-05-07 16:16 -24.57967 -51.54226 5558 ft 166 kts
2026-05-07 16:16 -24.56824 -51.54043 5547 ft 166 kts
2026-05-07 16:16 -24.55688 -51.53860 5549 ft 163 kts
2026-05-07 16:17 -24.54571 -51.53679 5555 ft 162 kts
2026-05-07 16:17 -24.53457 -51.53499 5546 ft 161 kts
2026-05-07 16:17 -24.52344 -51.53317 5546 ft 162 kts
2026-05-07 16:17 -24.51229 -51.53137 5551 ft 162 kts
2026-05-07 16:18 -24.50102 -51.52957 5553 ft 164 kts
2026-05-07 16:18 -24.48979 -51.52774 5548 ft 162 kts
2026-05-07 16:18 -24.47862 -51.52593 5545 ft 162 kts
2026-05-07 16:18 -24.46755 -51.52412 5548 ft 160 kts
2026-05-07 16:19 -24.45654 -51.52231 5546 ft 160 kts
2026-05-07 16:19 -24.44548 -51.52050 5554 ft 161 kts
2026-05-07 16:19 -24.43434 -51.51867 5546 ft 161 kts
2026-05-07 16:19 -24.42325 -51.51683 5545 ft 161 kts
2026-05-07 16:20 -24.41234 -51.51505 5545 ft 160 kts
2026-05-07 16:20 -24.40131 -51.51323 5545 ft 160 kts
2026-05-07 16:20 -24.39039 -51.51342 5516 ft 160 kts 339°
2026-05-07 16:20 -24.38239 -51.52180 5484 ft 163 kts 304°
2026-05-07 16:21 -24.37716 -51.53273 5465 ft 164 kts 283°
2026-05-07 16:21 -24.37685 -51.54100 5444 ft 163 kts 266°
2026-05-07 16:21 -24.37936 -51.55308 5374 ft 164 kts 252°
2026-05-07 16:21 -24.38301 -51.56503 5295 ft 164 kts 252°
2026-05-07 16:22 -24.38658 -51.57686 5222 ft 163 kts 252°
2026-05-07 16:22 -24.39011 -51.58868 5145 ft 163 kts 252°
2026-05-07 16:22 -24.39430 -51.60014 5046 ft 163 kts 238°
2026-05-07 16:22 -24.40156 -51.60970 4975 ft 163 kts 229°
2026-05-07 16:23 -24.41025 -51.61768 4888 ft 164 kts 213°
2026-05-07 16:23 -24.41996 -51.62395 4816 ft 165 kts 208°
2026-05-07 16:23 -24.43054 -51.62877 4754 ft 165 kts 198°
2026-05-07 16:23 -24.44176 -51.63178 4663 ft 166 kts 194°
2026-05-07 16:24 -24.45294 -51.63475 4597 ft 165 kts 194°
2026-05-07 16:24 -24.46413 -51.63770 4513 ft 165 kts 194°
2026-05-07 16:24 -24.47476 -51.64201 4425 ft 164 kts 210°
2026-05-07 16:24 -24.48371 -51.64999 4343 ft 167 kts 225°
2026-05-07 16:25 -24.49194 -51.65883 4265 ft 164 kts 222°
2026-05-07 16:25 -24.50260 -51.66255 4136 ft 167 kts 176°
2026-05-07 16:25 -24.51399 -51.66024 4062 ft 166 kts 171°
2026-05-07 16:25 -24.52547 -51.65840 4017 ft 166 kts 172°
2026-05-07 16:26 -24.53676 -51.65653 4005 ft 162 kts 170°
2026-05-07 16:26 -24.54776 -51.65377 4017 ft 163 kts 166°
2026-05-07 16:26 -24.55738 -51.64945 3947 ft 136 kts 137°
2026-05-07 16:26 -24.55935 -51.64079 3833 ft 111 kts 75°
2026-05-07 16:27 -24.55466 -51.63621 3717 ft 91 kts 359°
2026-05-07 16:27 -24.54940 -51.63960 3559 ft 91 kts 323°
2026-05-07 16:27 -24.54419 -51.64349 3335 ft 88 kts 327°
2026-05-07 16:27 -24.53864 -51.64677 3015 ft 96 kts 331°
2026-05-07 16:28 -24.53315 -51.64973 2888 ft 79 kts 333°
2026-05-07 16:28 -24.52882 -51.65209 2889 ft 56 kts 337°
2026-05-07 16:28 -24.52630 -51.65317 2894 ft 8 kts 279°
2026-05-07 16:28 -24.52682 -51.65307 2893 ft 15 kts 156°
2026-05-07 16:29 -24.52829 -51.65234 2889 ft 26 kts 154°
2026-05-07 16:29 -24.52990 -51.65139 2887 ft 28 kts 152°
2026-05-07 16:29 -24.53173 -51.65042 2882 ft 27 kts 163°
2026-05-07 16:29 -24.53232 -51.65075 2882 ft 0 kts 244°
2026-05-07 16:30 -24.53232 -51.65076 2882 ft 1 kts 243°
2026-05-07 16:30 -24.53248 -51.65108 2882 ft 6 kts 243°
2026-05-07 16:30 -24.53258 -51.65130 2882 ft 0 kts 243°